Location: Unspecified
(33.6682°S, 0.0000°E)
Time: 03:00:58
(UTC+00:00)

Vanguard 2 Rocket - Pass Details

Date: 21 June 2019
Orbit: 554 x 3326 km, 32.9° (Epoch: 12 October)

Event Time Altitude Azimuth Distance (km) Brightness Sun altitude
Rises 07:44:24 0° 314° (NW) 7,125 11.3 6.3°
Reaches altitude 10° 07:49:51 10° 318° (NW) 5,866 11.0 7.3°
Maximum altitude 08:05:27 46° 24° (NNE) 2,718 10.1 9.9°
Drops below altitude 10° 08:14:58 10° 93° (E) 3,676 10.9 11.5°
Sets 08:17:32 0° 99° (E) 4,355 11.0 11.9°
